Date,TemperatureHighF,TemperatureAvgF,TemperatureLowF,DewpointHighF,DewpointAvgF,DewpointLowF,HumidityHigh,HumidityAvg,HumidityLow,PressureMaxIn,PressureMinIn,WindSpeedMaxMPH,WindSpeedAvgMPH,GustSpeedMaxMPH,PrecipitationSumIn
2013-8-1,76.3,63.5,53.6,65.5,60.8,53.0,98,92,65,30.04,29.84,5,1,0,0.42
2013-8-2,81.0,68.1,58.6,68.8,61.2,57.0,98,81,46,29.85,29.77,4,1,0,0.01
2013-8-3,79.5,64.9,55.6,63.3,57.7,53.9,98,80,52,29.85,29.77,5,1,0,0.06
2013-8-4,72.3,61.5,52.3,62.8,56.3,51.8,98,84,65,29.90,29.79,4,1,0,0.01
2013-8-5,72.5,59.3,50.0,52.7,48.4,37.7,95,71,29,30.05,29.90,4,1,0,0.00
2013-8-6,77.4,60.3,44.2,55.6,50.8,43.3,98,74,44,30.14,30.05,4,1,0,0.00
2013-8-7,77.2,64.3,52.2,62.6,57.1,51.4,98,79,55,30.18,30.07,5,1,0,0.00
2013-8-8,81.5,71.0,63.1,70.3,66.7,61.1,98,87,66,30.07,29.97,5,1,0,0.00
2013-8-9,71.8,69.2,64.8,71.2,68.6,64.2,98,98,98,29.99,29.75,3,0,0,0.77
2013-8-10,77.5,66.8,55.9,64.7,59.5,51.8,98,79,50,30.03,29.79,4,1,0,0.00
2013-8-11,76.3,61.0,47.3,57.9,53.5,46.8,98,79,50,30.08,29.98,3,1,0,0.00
2013-8-12,78.8,64.3,51.6,61.2,57.2,51.1,98,80,52,30.02,29.91,3,1,0,0.00
2013-8-13,67.8,61.8,55.9,67.2,61.2,55.3,98,98,97,29.91,29.68,2,0,0,0.60
2013-8-14,70.9,60.4,52.3,63.4,55.3,50.0,98,84,61,29.95,29.67,5,2,0,0.00
2013-8-15,73.9,58.1,45.9,55.8,51.7,45.4,98,81,53,30.11,29.95,5,1,0,0.00
2013-8-16,76.8,60.4,46.6,59.0,53.9,46.1,98,81,49,30.19,30.10,4,0,0,0.00
2013-8-17,79.9,62.7,49.5,62.0,56.4,49.0,98,82,51,30.29,30.20,3,0,0,0.00
2013-8-18,77.5,63.7,51.6,64.4,58.5,51.1,98,85,58,30.29,30.08,4,0,0,0.00
2013-8-19,82.6,65.8,52.7,63.1,59.2,52.2,98,82,50,30.08,29.95,3,0,0,0.00
2013-8-20,84.6,67.6,54.5,65.2,60.5,53.9,98,81,46,30.10,30.00,3,1,0,0.00
2013-8-21,88.2,69.4,56.1,67.6,62.4,55.5,98,81,50,30.16,30.01,4,0,0,0.00
2013-8-22,86.9,71.1,58.5,67.9,63.8,57.9,98,81,48,30.02,29.80,4,1,0,0.35
2013-8-23,77.5,64.2,53.6,65.2,58.4,50.6,98,83,52,30.16,29.83,3,1,0,0.00
2013-8-24,79.2,59.2,44.2,55.3,50.5,43.4,98,77,38,30.34,30.16,3,1,0,0.00
2013-8-25,80.8,61.5,45.3,61.1,53.9,44.4,98,79,49,30.39,30.15,4,1,0,0.00
2013-8-26,75.7,67.2,59.4,69.0,64.3,58.2,98,91,75,30.17,29.87,4,1,0,0.15
2013-8-27,82.6,70.5,62.6,71.6,67.0,62.0,98,89,67,29.90,29.84,2,0,0,0.00
2013-8-28,83.5,69.8,61.9,72.5,66.4,61.3,98,90,64,29.99,29.85,9,1,0,0.73
2013-8-29,72.1,64.0,61.0,66.8,62.6,60.4,98,96,81,30.08,29.96,4,1,0,0.01
2013-8-30,85.1,69.6,61.2,69.2,65.0,60.6,98,87,56,30.02,29.81,3,0,0,0.00
2013-8-31,77.0,70.0,65.3,73.9,68.9,64.7,98,97,88,29.83,29.75,3,0,0,0.40